Waarnemingen

Advertentie
Mijn weer
Cannes, Frankrijk (7684): temperatuur & dauwpunt: 16.10.2017 06:00:00 - 22.10.2017 06:00:00 (CEST)Cannes, Frankrijk (7684): temperatuur 5cm: 16.10.2017 06:00:00 - 22.10.2017 06:00:00 (CEST)Cannes, Frankrijk (7684): windsnelheid & windstoten: 16.10.2017 06:00:00 - 22.10.2017 06:00:00 (CEST)Cannes, Frankrijk (7684): windrichting: 16.10.2017 06:00:00 - 22.10.2017 06:00:00 (CEST)Cannes, Frankrijk (7684): luchtdruk: 16.10.2017 06:00:00 - 22.10.2017 06:00:00 (CEST)Cannes, Frankrijk (7684): zicht: 16.10.2017 06:00:00 - 22.10.2017 06:00:00 (CEST)Cannes, Frankrijk (7684): Zonneschijnduur: 16.10.2017 06:00:00 - 22.10.2017 06:00:00 (CEST)Cannes, Frankrijk (7684): neerslag: 16.10.2017 06:00:00 - 22.10.2017 06:00:00 (CEST)
Datum & Tijd tt [°C] td [°C] tt 5cm [°C] ff [km/u] ff [kn] fx [km/u] fx [kn] dd ppp [hPa] vv [km] sd [min] rr [mm]
22.10.2017 06:00:00 17,8 7,2 - 15 8 29 16 W 1014,6 10 - 0,0
22.10.2017 05:00:00 18,4 8,9 17,2 18 10 31 17 WZW 1015,0 60 0 0,0
22.10.2017 04:00:00 18,7 11,3 17,5 16 9 40 22 W 1015,5 10 0 0,0
22.10.2017 03:00:00 20,0 12,7 18,4 21 11 38 21 W 1015,8 10 0 0,0
22.10.2017 02:00:00 19,4 14,4 18,4 23 13 42 23 WZW 1016,3 31 0 0,0
22.10.2017 01:00:00 19,8 14,4 19,1 21 11 45 24 W 1016,7 10 0 0,0
22.10.2017 00:00:00 20,9 14,1 19,3 25 13 43 23 W 1016,9 32 0 0,0
21.10.2017 23:00:00 20,3 14,6 19,5 21 11 45 24 WZW 1017,0 31 0 0,0
21.10.2017 22:00:00 21,4 14,3 20,0 21 12 37 20 WZW 1017,2 39 0 0,0
21.10.2017 21:00:00 21,6 14,5 20,3 14 7 36 20 WZW 1017,3 39 0 0,0
21.10.2017 20:00:00 22,6 15,2 20,2 21 11 38 20 WZW 1017,3 41 0 0,0
21.10.2017 19:00:00 22,1 16,1 20,8 15 8 29 16 ZW 1017,2 34 0 0,0
21.10.2017 18:00:00 22,7 16,5 22,4 15 8 31 17 ZW 1017,2 10 14 0,0
21.10.2017 17:00:00 24,1 16,4 25,2 21 11 29 16 ZW 1017,1 49 46 0,0
21.10.2017 16:00:00 26,0 15,7 29,0 18 10 32 17 ZZW 1017,1 10 58 0,0
21.10.2017 15:00:00 26,0 15,7 28,3 18 10 32 17 ZZW 1017,6 10 60 0,0
21.10.2017 14:00:00 26,2 14,3 27,9 21 11 33 18 ZZW 1018,4 10 60 0,0
21.10.2017 13:00:00 26,0 13,5 29,0 17 9 30 16 ZZW 1019,4 40 60 0,0
21.10.2017 12:00:00 24,1 13,6 26,9 21 11 36 19 WZW 1020,1 10 60 0,0
21.10.2017 11:00:00 22,3 14,2 23,9 9 5 21 11 - 1020,3 10 60 0,0
21.10.2017 10:00:00 17,2 13,5 16,3 4 2 14 8 - 1020,4 10 60 0,0
21.10.2017 09:00:00 13,7 12,3 11,6 5 3 13 7 N 1020,4 10 34 0,2
21.10.2017 08:00:00 12,6 11,8 10,7 8 4 13 7 N 1020,0 4,1 0 0,0
21.10.2017 07:00:00 12,7 12,1 11,2 4 2 15 8 NNO 1020,0 9 0 0,0
21.10.2017 06:00:00 12,6 12,0 11,7 8 5 14 8 N 1019,6 7 0 0,0
21.10.2017 05:00:00 12,8 12,0 11,4 8 4 13 7 N 1019,6 7 0 0,0
21.10.2017 04:00:00 13,1 12,0 11,2 4 2 11 6 NNO 1019,9 11 0 0,0
21.10.2017 03:00:00 13,2 11,9 11,9 5 3 12 6 N 1020,4 10 0 0,0
21.10.2017 02:00:00 13,7 12,4 12,3 8 4 13 7 NNO 1020,7 10 0 0,0
21.10.2017 01:00:00 14,3 12,8 12,2 4 2 9 5 - 1020,6 10 0 0,0
21.10.2017 00:00:00 14,5 12,9 13,2 5 3 9 5 - 1020,7 10 0 0,0
20.10.2017 23:00:00 15,0 13,4 12,7 5 3 9 5 - 1020,8 10 0 0,0
20.10.2017 22:00:00 15,6 13,6 13,8 3 2 7 4 N 1020,6 15 0 0,0
20.10.2017 21:00:00 16,3 14,0 14,8 6 3 10 5 N 1020,4 16 0 0,0
20.10.2017 20:00:00 17,9 15,3 13,7 2 1 5 3 N 1020,0 15 0 0,0
20.10.2017 19:00:00 18,2 15,4 15,0 4 2 9 5 ZZW 1019,5 17 0 0,0
20.10.2017 18:00:00 19,8 15,9 19,8 7 4 16 9 Z 1019,2 25 49 0,0
20.10.2017 17:00:00 20,8 15,8 23,1 11 6 18 10 Z 1019,0 11 58 0,0
20.10.2017 16:00:00 21,9 15,3 26,0 11 6 19 11 ZZO 1018,6 10 60 0,0
20.10.2017 15:00:00 21,8 15,2 24,7 13 7 22 12 Z 1018,7 10 60 0,0
20.10.2017 14:00:00 22,3 14,2 24,8 16 9 23 12 ZZO 1019,2 10 60 0,0
20.10.2017 13:00:00 22,8 12,1 28,3 12 7 21 12 ZZO 1019,5 20 60 0,0
20.10.2017 12:00:00 23,0 10,8 24,5 9 5 23 12 ONO 1019,6 10 60 0,0
20.10.2017 11:00:00 23,2 9,6 23,6 4 2 13 7 OZO 1019,5 20 60 0,0
20.10.2017 10:00:00 17,3 9,5 16,9 8 5 16 8 N 1019,2 33 60 0,0
20.10.2017 09:00:00 13,8 8,8 11,3 7 4 15 8 NNO 1018,8 29 37 0,0
20.10.2017 08:00:00 12,3 8,6 11,3 6 3 16 9 N 1018,1 28 0 0,0
20.10.2017 07:00:00 12,9 9,0 11,5 9 5 16 9 N 1017,4 32 0 0,0
20.10.2017 06:00:00 13,3 9,7 12,2 10 5 16 9 NNO 1016,9 30 0 0,0
20.10.2017 05:00:00 14,3 9,9 12,6 8 4 13 7 NNO 1016,8 10 0 0,0
20.10.2017 04:00:00 14,6 10,6 12,8 7 4 14 7 NNO 1016,9 32 0 0,0
20.10.2017 03:00:00 14,9 11,3 12,8 8 4 13 7 NNO 1017,3 10 0 0,0
20.10.2017 02:00:00 15,1 11,9 13,2 5 3 14 8 NNO 1016,8 24 0 0,0
20.10.2017 01:00:00 15,0 12,1 13,8 9 5 13 7 N 1016,7 22 0 0,0
20.10.2017 00:00:00 17,2 12,9 15,2 8 4 17 9 NNO 1016,4 10 0 0,0
19.10.2017 23:00:00 18,5 12,0 14,6 5 3 16 9 N 1016,4 46 0 0,0
19.10.2017 22:00:00 18,5 13,8 15,9 7 4 17 9 N 1016,2 35 0 0,0
19.10.2017 21:00:00 19,1 14,1 16,3 8 5 16 9 NO 1016,3 33 0 0,0
19.10.2017 20:00:00 19,5 13,4 17,8 4 2 22 12 ZW 1016,2 41 0 0,0
19.10.2017 19:00:00 19,8 14,4 19,5 9 5 27 14 ONO 1015,3 30 0 0,0
19.10.2017 18:00:00 20,0 14,1 20,0 10 6 29 16 O 1015,3 35 0 0,0
19.10.2017 17:00:00 20,3 14,2 20,5 11 6 30 16 O 1015,5 35 0 0,0
19.10.2017 16:00:00 21,2 14,6 22,2 13 7 30 16 - 1015,6 10 20 0,0
19.10.2017 15:00:00 21,3 14,7 23,0 13 7 33 18 O 1016,0 10 32 0,0
19.10.2017 14:00:00 22,2 14,6 24,0 11 6 38 20 - 1016,3 10 49 0,0
19.10.2017 13:00:00 21,7 14,3 25,1 15 8 38 21 ONO 1017,3 10 51 0,0
19.10.2017 12:00:00 21,3 14,5 22,7 9 5 29 16 ONO 1017,5 10 57 0,0
19.10.2017 11:00:00 20,4 13,1 21,4 11 6 22 12 NO 1017,0 24 47 0,0
19.10.2017 10:00:00 19,2 12,7 20,5 9 5 17 9 NNO 1017,3 10 35 0,0
19.10.2017 09:00:00 17,0 12,7 14,7 4 2 9 5 - 1017,2 10 32 0,0
19.10.2017 08:00:00 16,5 12,5 14,7 5 3 11 6 - 1016,8 10 0 0,0
19.10.2017 07:00:00 17,4 12,5 16,0 6 3 11 6 N 1017,1 28 0 0,0
19.10.2017 06:00:00 17,2 12,7 15,1 6 4 13 7 NNW 1016,9 28 0 0,0
19.10.2017 05:00:00 17,9 13,4 15,5 5 3 13 7 - 1016,9 10 0 0,0
19.10.2017 04:00:00 17,0 14,1 14,8 3 2 11 6 N 1017,0 20 0 0,0
19.10.2017 03:00:00 15,6 13,4 14,6 5 3 10 6 N 1017,6 13 0 0,0
19.10.2017 02:00:00 15,4 13,6 13,4 4 2 8 4 - 1017,8 10 0 0,0
19.10.2017 01:00:00 15,6 13,6 13,5 4 2 7 4 - 1017,7 10 0 0,0
19.10.2017 00:00:00 16,4 14,1 15,5 4 2 10 5 N 1018,0 12 0 0,0
18.10.2017 23:00:00 16,7 14,2 15,7 6 3 9 5 N 1018,4 12 0 0,0
18.10.2017 22:00:00 17,4 14,5 16,3 4 2 9 5 NNO 1018,3 12 0 0,0
18.10.2017 21:00:00 17,1 14,4 15,7 6 3 10 6 NNO 1018,1 12 0 0,0
18.10.2017 20:00:00 17,1 14,0 15,6 5 3 8 4 N 1018,2 12 0 0,0
18.10.2017 19:00:00 18,3 14,4 15,6 2 1 11 6 NNO 1017,7 15 0 0,0
18.10.2017 18:00:00 19,3 14,3 18,9 8 4 19 10 OZO 1017,4 10 38 0,0
18.10.2017 17:00:00 20,3 14,6 22,6 13 7 21 11 ZZO 1017,7 10 60 0,0
18.10.2017 16:00:00 20,8 14,9 24,0 13 7 22 12 ZZO 1018,1 10 60 0,0
18.10.2017 15:00:00 20,3 14,6 23,6 15 8 23 13 ZZO 1018,5 10 60 0,0
18.10.2017 14:00:00 20,8 14,4 23,4 13 7 21 12 ZZO 1019,3 10 60 0,0
18.10.2017 13:00:00 20,3 13,3 26,8 11 6 20 11 ZZO 1020,0 10 60 0,0
18.10.2017 12:00:00 20,6 14,0 26,0 9 5 17 9 ZO 1020,2 10 60 0,0
18.10.2017 11:00:00 19,0 12,0 17,5 4 2 14 8 N 1020,5 19 47 0,0
18.10.2017 10:00:00 13,8 9,4 11,9 5 3 16 9 N 1021,0 10 4 0,0
18.10.2017 09:00:00 11,4 8,4 9,6 9 5 17 9 N 1020,8 20 0 0,0
18.10.2017 08:00:00 10,3 7,9 9,1 10 5 18 10 N 1020,5 17 0 0,0
18.10.2017 07:00:00 10,2 8,0 9,2 8 5 13 7 N 1020,7 20 0 0,0
18.10.2017 06:00:00 10,9 8,3 9,8 8 4 18 10 N 1021,1 10 0 0,0
18.10.2017 05:00:00 10,8 8,7 9,5 9 5 14 8 N 1021,4 20 0 0,0
18.10.2017 04:00:00 10,5 8,8 9,4 8 4 16 8 N 1021,7 18 0 0,0
18.10.2017 03:00:00 10,7 9,1 9,1 7 4 11 6 N 1022,2 17 0 0,0
18.10.2017 02:00:00 11,1 9,4 9,7 7 4 14 7 N 1022,3 16 0 0,0
18.10.2017 01:00:00 11,6 9,8 9,5 5 3 11 6 N 1022,5 16 0 0,0
18.10.2017 00:00:00 11,8 10,0 10,1 5 3 11 6 N 1022,6 16 0 0,0
17.10.2017 23:00:00 12,4 10,6 9,4 8 4 10 5 N 1022,8 10 0 0,0
17.10.2017 22:00:00 13,1 11,2 10,2 2 1 7 4 - 1022,7 10 0 0,0
17.10.2017 21:00:00 14,1 11,6 11,5 5 3 9 5 N 1022,8 10 0 0,0
17.10.2017 20:00:00 15,4 11,0 11,7 5 3 9 5 N 1022,9 10 0 0,0
17.10.2017 19:00:00 17,5 15,1 13,4 0 0 10 5 N 1022,7 10 13 0,0
17.10.2017 18:00:00 19,0 15,5 20,0 5 3 16 9 - 1023,0 10 60 0,0
17.10.2017 17:00:00 19,6 15,5 23,1 11 6 19 10 ZZO 1023,4 10 60 0,0
17.10.2017 16:00:00 20,9 15,2 26,0 9 5 19 10 Z 1023,6 10 60 0,0
17.10.2017 15:00:00 20,8 14,7 23,4 9 5 16 9 Z 1024,0 10 60 0,0
17.10.2017 14:00:00 21,0 14,9 23,8 10 5 19 10 Z 1024,8 20 60 0,0
17.10.2017 13:00:00 21,2 14,6 27,8 8 4 15 8 ZZO 1025,2 10 60 0,0
17.10.2017 12:00:00 20,7 13,6 27,5 8 4 10 6 Z 1025,6 10 60 0,0
17.10.2017 11:00:00 20,1 13,3 21,4 0 0 10 6 N 1025,9 10 60 0,0
17.10.2017 10:00:00 15,1 10,3 16,1 8 4 13 7 N 1026,2 10 60 0,0
17.10.2017 09:00:00 11,9 9,3 9,3 5 3 13 7 N 1026,1 18 37 0,0
17.10.2017 08:00:00 10,5 8,6 9,2 5 3 14 8 N 1026,0 10 0 0,0
17.10.2017 07:00:00 10,6 9,0 - 5 3 13 7 N 1025,9 10 - 0,0
17.10.2017 06:00:00 10,8 9,2 - 5 3 13 7 - 1026,0 10 - 0,0
17.10.2017 05:00:00 11,2 9,8 9,9 7 4 15 8 N 1026,0 15 0 0,0
17.10.2017 04:00:00 11,8 10,4 10,6 9 5 14 8 N 1026,2 10 0 0,0
17.10.2017 03:00:00 12,0 10,6 10,8 7 4 12 7 N 1026,7 13 0 0,0
17.10.2017 02:00:00 12,4 11,3 10,9 6 3 11 6 N 1027,0 11 0 0,0
17.10.2017 01:00:00 12,8 11,7 11,3 5 3 10 6 - 1027,2 10 0 0,0
17.10.2017 00:00:00 13,4 12,5 12,0 6 3 9 5 N 1027,4 9 0 0,0
16.10.2017 23:00:00 14,0 13,0 12,6 6 3 9 5 N 1027,5 8 0 0,0
16.10.2017 22:00:00 14,7 13,6 13,3 5 3 10 6 N 1027,4 8 0 0,0
16.10.2017 21:00:00 15,9 14,6 14,4 6 3 9 5 NNO 1027,3 9 0 0,0
16.10.2017 20:00:00 17,3 15,5 15,1 4 2 7 4 N 1027,4 11 0 0,0
16.10.2017 19:00:00 19,0 16,4 16,8 3 1 10 5 O 1027,0 15 14 0,0
16.10.2017 18:00:00 20,1 16,3 21,2 5 3 16 9 - 1026,8 10 60 0,0
16.10.2017 17:00:00 20,7 16,5 23,8 8 4 20 11 ZO 1026,6 10 60 0,0
16.10.2017 16:00:00 20,9 16,7 24,7 12 6 22 12 ZO 1026,7 13 60 0,0
16.10.2017 15:00:00 21,4 16,4 24,0 13 7 19 11 ZZO 1027,1 10 60 0,0
16.10.2017 14:00:00 21,7 16,2 24,3 11 6 20 11 ZZO 1027,8 10 60 0,0
16.10.2017 13:00:00 21,0 16,0 27,5 11 6 18 10 ZZO 1028,4 10 60 0,0
16.10.2017 12:00:00 21,2 15,9 27,8 10 5 15 8 ZZO 1028,7 17 60 0,0
16.10.2017 11:00:00 20,1 14,7 23,4 3 1 10 5 WNW 1028,9 20 60 0,0
16.10.2017 10:00:00 16,9 12,6 17,4 8 4 14 8 N 1028,9 10 60 0,0
16.10.2017 09:00:00 14,3 11,4 12,4 9 5 18 10 N 1028,7 10 35 0,0
16.10.2017 08:00:00 13,0 11,1 12,3 9 5 16 9 N 1028,3 16 0 0,0
16.10.2017 07:00:00 13,3 11,4 12,2 9 5 16 8 N 1028,3 18 0 0,0
16.10.2017 06:00:00 12,6 11,0 11,8 8 4 14 7 N 1028,1 10 0 0,0

tt = temperatuur
td = dauwpunt
tt 5cm = temperatuur 5cm
ff = windsnelheid
fx = windstoten
dd = windrichting
ppp = luchtdruk
vv = zicht
sd = Zonneschijnduur
rr = neerslag

Weerstations in de omgeving